Greeley, CO

1:15 AM MDT on May 24, 2017 (GMT -0600)
Greeley-Weld County

Weather History for KGXY - December, 2012

Change the Weather History Date:

Sunday, December 9, 2012

  Actual Average Record
Temperature  
Mean Temperature 17 °F -  
Max Temperature 28 °F - 64 °F (1975)
Min Temperature 6 °F - -17 °F (1978)
Degree Days  
Heating Degree Days 48    
Month to date heating degree days  
Cooling Degree Days 0    
Month to date cooling degree days  
Moisture  
Dew Point 1 °F    
Average Humidity 44    
Maximum Humidity 72    
Minimum Humidity 31    
Precipitation  
Precipitation 0.00 in - 0.65 in (1985)
Sea Level Pressure  
Sea Level Pressure 30.10 in    
Wind  
Wind Speed 16 mph (North)    
Max Wind Speed 28 mph    
Max Gust Speed 33 mph    
Visibility 10 miles    
Events      
T = Trace of Precipitation, MM = Missing Value Source: NWS Daily Summary

Daily Weather History Graph

Daily Weather History Graph

Search for Another Location

Airport or City:

Trip Planner

Search our weather history database for the weather conditions in past years. The results will help you decide how hot, cold, wet, or windy it might be!

Date:

Astronomy

Dec. 09, 2012 Rise Set
Actual Time 7:10 AM MST 4:31 PM MST
Civil Twilight 6:39 AM MST 5:02 PM MST
Nautical Twilight 6:05 AM MST 5:36 PM MST
Astronomical Twilight 5:32 AM MST 6:09 PM MST
Moon 2:45 AM MST (12/9) 1:40 PM MST (12/9)
Length of Visible Light 10h 22m
Length of Day
9h 21m
Waning Crescent, 18% of the Moon is Illuminated
Dec 9
Waning Crescent
Dec 13
New
Dec 19
First Quarter
Dec 28
Full
Jan 4
Last Quarter

Hourly Weather History & Observations

Time (MST) Temp. Windchill Dew Point Humidity Pressure Visibility Wind Dir Wind Speed Gust Speed Precip Events Conditions
12:15 AM 28.4 °F 14.7 °F 1.4 °F 31% 29.91 in 10.0 mi NNW 21.9 mph 29.9 mph N/A   Partly Cloudy
12:35 AM 28.4 °F 14.4 °F 1.4 °F 31% 29.91 in 10.0 mi NW 23.0 mph 29.9 mph N/A   Scattered Clouds
12:55 AM 26.6 °F 12.0 °F 1.4 °F 34% 29.92 in 10.0 mi NW 23.0 mph 28.8 mph N/A   Partly Cloudy
1:15 AM 26.6 °F 13.4 °F 1.4 °F 34% 29.92 in 10.0 mi NNW 18.4 mph - N/A   Partly Cloudy
1:35 AM 26.6 °F 13.1 °F 1.4 °F 34% 29.93 in 10.0 mi NNW 19.6 mph - N/A   Partly Cloudy
1:55 AM 24.8 °F 11.1 °F 1.4 °F 36% 29.94 in 10.0 mi North 18.4 mph - N/A   Clear
2:15 AM 24.8 °F 11.1 °F 1.4 °F 36% 29.94 in 10.0 mi North 18.4 mph - N/A   Scattered Clouds
2:35 AM 24.8 °F 12.4 °F 1.4 °F 36% 29.95 in 10.0 mi North 15.0 mph - N/A   Mostly Cloudy
2:55 AM 24.8 °F 12.4 °F 1.4 °F 36% 29.96 in 10.0 mi NNW 15.0 mph - N/A   Mostly Cloudy
3:15 AM 24.8 °F 11.9 °F 1.4 °F 36% 29.97 in 10.0 mi NNW 16.1 mph - N/A   Mostly Cloudy
3:35 AM 24.8 °F 11.1 °F 1.4 °F 36% 29.98 in 10.0 mi NNW 18.4 mph 27.6 mph N/A   Mostly Cloudy
3:55 AM 23.0 °F 8.3 °F 1.4 °F 39% 29.98 in 10.0 mi NNW 19.6 mph - N/A   Mostly Cloudy
4:15 AM 24.8 °F 13.4 °F 1.4 °F 36% 29.99 in 10.0 mi North 12.7 mph 27.6 mph N/A   Partly Cloudy
4:35 AM 21.2 °F 8.3 °F 3.2 °F 46% 30.00 in 10.0 mi NNW 13.8 mph - N/A   Clear
4:55 AM 21.2 °F 8.9 °F 3.2 °F 46% 30.02 in 10.0 mi North 12.7 mph - N/A   Clear
5:15 AM 21.2 °F 8.3 °F 3.2 °F 46% 30.04 in 10.0 mi North 13.8 mph - N/A   Clear
5:35 AM 19.4 °F 7.9 °F 3.2 °F 49% 30.06 in 10.0 mi NNE 10.4 mph - N/A   Clear
5:55 AM 19.4 °F 4.1 °F 3.2 °F 49% 30.07 in 10.0 mi NNW 18.4 mph - N/A   Clear
6:15 AM 19.4 °F 4.5 °F 3.2 °F 49% 30.09 in 10.0 mi NNW 17.3 mph 23.0 mph N/A   Clear
6:35 AM 19.4 °F 4.5 °F 1.4 °F 46% 30.09 in 10.0 mi North 17.3 mph - N/A   Clear
6:55 AM 17.6 °F 2.7 °F 1.4 °F 49% 30.09 in 10.0 mi NNW 16.1 mph - N/A   Clear
7:15 AM 17.6 °F 2.7 °F 1.4 °F 49% 30.09 in 10.0 mi NNW 16.1 mph - N/A   Clear
7:35 AM 17.6 °F 4.3 °F 1.4 °F 49% 30.12 in 10.0 mi NNW 12.7 mph - N/A   Clear
7:55 AM 17.6 °F 5.0 °F 1.4 °F 49% 30.13 in 10.0 mi NW 11.5 mph - N/A   Clear
8:15 AM 17.6 °F 6.4 °F 1.4 °F 49% 30.14 in 10.0 mi NW 9.2 mph - N/A   Clear
8:35 AM 19.4 °F 6.0 °F 1.4 °F 46% 30.15 in 10.0 mi NW 13.8 mph - N/A   Clear
8:55 AM 19.4 °F 6.0 °F 3.2 °F 49% 30.16 in 10.0 mi NW 13.8 mph - N/A   Clear
9:35 AM 24.8 °F 10.3 °F 1.4 °F 36% 30.18 in 10.0 mi North 20.7 mph 29.9 mph N/A   Clear
9:55 AM 24.8 °F 9.3 °F 1.4 °F 36% 30.18 in 10.0 mi North 24.2 mph - N/A   Clear
10:15 AM 24.8 °F 8.4 °F 1.4 °F 36% 30.18 in 10.0 mi North 27.6 mph 31.1 mph N/A   Clear
10:35 AM 24.8 °F 9.3 °F 1.4 °F 36% 30.17 in 10.0 mi North 24.2 mph 33.4 mph N/A   Clear
10:55 AM 24.8 °F 9.6 °F 1.4 °F 36% 30.17 in 10.0 mi North 23.0 mph 28.8 mph N/A   Clear
11:15 AM 26.6 °F 11.7 °F -0.4 °F 31% 30.17 in 9.0 mi North 24.2 mph 29.9 mph N/A   Clear
11:35 AM 26.6 °F 12.0 °F -0.4 °F 31% 30.16 in 10.0 mi North 23.0 mph 28.8 mph N/A   Clear
11:55 AM 26.6 °F 12.4 °F -0.4 °F 31% 30.16 in 10.0 mi North 21.9 mph 31.1 mph N/A   Clear
12:15 PM 26.6 °F 12.4 °F 1.4 °F 34% 30.15 in 10.0 mi North 21.9 mph - N/A   Clear
12:35 PM 26.6 °F 12.4 °F -0.4 °F 31% 30.14 in 10.0 mi NNW 21.9 mph 27.6 mph N/A   Partly Cloudy
12:55 PM 26.6 °F 13.4 °F -0.4 °F 31% 30.14 in 10.0 mi North 18.4 mph 28.8 mph N/A   Clear
1:15 PM 26.6 °F 13.1 °F -0.4 °F 31% 30.14 in 10.0 mi North 19.6 mph 25.3 mph N/A   Clear
1:35 PM 26.6 °F 13.8 °F -0.4 °F 31% 30.14 in 5.0 mi North 17.3 mph 26.5 mph N/A   Clear
1:55 PM 26.6 °F 14.3 °F -0.4 °F 31% 30.14 in 8.0 mi North 16.1 mph 23.0 mph N/A   Clear
2:15 PM 24.8 °F 12.4 °F -0.4 °F 34% 30.15 in 10.0 mi North 15.0 mph - N/A   Clear
2:35 PM 26.6 °F 13.8 °F -0.4 °F 31% 30.15 in 9.0 mi North 17.3 mph 25.3 mph N/A   Clear
2:55 PM 24.8 °F 10.7 °F -0.4 °F 34% 30.15 in 10.0 mi NNE 19.6 mph - N/A   Clear
3:15 PM 24.8 °F 11.5 °F -0.4 °F 34% 30.16 in 10.0 mi NNE 17.3 mph - N/A   Clear
3:35 PM 24.8 °F 11.5 °F -0.4 °F 34% 30.16 in 10.0 mi NNE 17.3 mph - N/A   Clear
3:55 PM 24.8 °F 11.9 °F -0.4 °F 34% 30.16 in 9.0 mi NNE 16.1 mph - N/A   Clear
4:15 PM 23.0 °F 10.6 °F -0.4 °F 36% 30.16 in 10.0 mi NNE 13.8 mph - N/A   Clear
4:35 PM 21.2 °F 9.5 °F -2.2 °F 36% 30.16 in 10.0 mi NE 11.5 mph - N/A   Clear
4:55 PM 17.6 °F 5.0 °F -2.2 °F 42% 30.16 in 10.0 mi ENE 11.5 mph - N/A   Clear
5:15 PM 17.6 °F 6.4 °F -2.2 °F 42% 30.16 in 9.0 mi NE 9.2 mph - N/A   Clear
5:35 PM 15.8 °F - -2.2 °F 45% 30.18 in 10.0 mi Calm Calm - N/A   Clear
5:55 PM 17.6 °F - -2.2 °F 42% 30.19 in 8.0 mi Calm Calm - N/A   Clear
6:15 PM 15.8 °F 8.6 °F -2.2 °F 45% 30.19 in 10.0 mi South 4.6 mph - N/A   Clear
6:35 PM 15.8 °F 7.2 °F -0.4 °F 49% 30.19 in 10.0 mi South 5.8 mph - N/A   Clear
6:55 PM 12.2 °F 1.7 °F -2.2 °F 53% 30.19 in 10.0 mi South 6.9 mph - N/A   Clear
7:15 PM 14.0 °F 8.2 °F -0.4 °F 53% 30.19 in 10.0 mi South 3.5 mph - N/A   Clear
7:35 PM 12.2 °F 4.3 °F -0.4 °F 57% 30.18 in 10.0 mi South 4.6 mph - N/A   Clear
7:55 PM 12.2 °F 6.1 °F -0.4 °F 57% 30.17 in 10.0 mi South 3.5 mph - N/A   Clear
8:15 PM 10.4 °F 4.0 °F 1.4 °F 67% 30.16 in 10.0 mi SSW 3.5 mph - N/A   Clear
8:35 PM 10.4 °F 4.0 °F 1.4 °F 67% 30.15 in 10.0 mi SSW 3.5 mph - N/A   Clear
8:55 PM 10.4 °F 2.2 °F 1.4 °F 67% 30.14 in 10.0 mi SSW 4.6 mph - N/A   Clear
9:15 PM 8.6 °F 2.0 °F -0.4 °F 67% 30.13 in 10.0 mi SSW 3.5 mph - N/A   Clear
9:35 PM 10.4 °F 4.0 °F -0.4 °F 62% 30.12 in 10.0 mi South 3.5 mph - N/A   Clear
9:55 PM 10.4 °F - 1.4 °F 67% 30.10 in 10.0 mi Calm Calm - N/A   Clear
10:15 PM 10.4 °F - 1.4 °F 67% 30.09 in 10.0 mi Calm Calm - N/A   Clear
10:35 PM 8.6 °F 2.0 °F -2.2 °F 62% 30.07 in 10.0 mi SE 3.5 mph - N/A   Clear
10:55 PM 8.6 °F 0.1 °F -0.4 °F 67% 30.06 in 10.0 mi NNW 4.6 mph - N/A   Clear
11:15 PM 10.4 °F 0.8 °F -0.4 °F 62% 30.05 in 10.0 mi South 5.8 mph - N/A   Clear
11:35 PM 6.8 °F -0.1 °F -0.4 °F 72% 30.03 in 10.0 mi ENE 3.5 mph - N/A   Clear
11:55 PM 6.8 °F -4.8 °F -2.2 °F 67% 30.01 in 9.0 mi NE 6.9 mph - N/A   Clear